USA 164 (MILSTAR-2 3)

Last updated on Sun Apr 12 2026 00:02:50 GMT+0000 (Coordinated Universal Time)

1 27168U 02001A 26101.01086654 .00000104 00000+0 00000+0 0 9990 2 27168 11.1001 22.3067 0099918 6.5489 193.2001 1.00273724 32285
UTC large
Height (km)
Speed (km/s)
/
Latitude / Longitude
Inclination (degrees)
Orbital Period (minutes)
Azimuth
Elevation
Range (km)
Doppler Factor

Next 0 passes for location: London (51.5072 / 0.1276)

Sorry there are no passes over London.
USA 164 (MILSTAR-2 3)